TimePDT,TemperatureF,Dew PointF,Humidity,Sea Level PressureIn,VisibilityMPH,Wind Direction,Wind SpeedMPH,Gust SpeedMPH,PrecipitationIn,Events,Conditions,WindDirDegrees,DateUTC
12:15 AM,50.0,42.8,76,29.80,10.0,SSW,3.5,-,N/A,,Clear,210,2013-10-10 07:15:00
12:35 AM,48.2,42.8,82,29.80,10.0,SSW,4.6,-,N/A,,Clear,210,2013-10-10 07:35:00
12:55 AM,50.0,41.0,71,29.81,10.0,ENE,3.5,-,N/A,,Clear,60,2013-10-10 07:55:00
1:15 AM,48.2,41.0,76,29.82,10.0,Calm,Calm,-,N/A,,Clear,0,2013-10-10 08:15:00
1:35 AM,48.2,41.0,76,29.81,10.0,Calm,Calm,-,N/A,,Partly Cloudy,0,2013-10-10 08:35:00
1:55 AM,48.2,42.8,82,29.82,10.0,SE,8.1,-,N/A,,Partly Cloudy,140,2013-10-10 08:55:00
2:15 AM,48.2,44.6,87,29.83,10.0,SW,5.8,-,N/A,,Mostly Cloudy,220,2013-10-10 09:15:00
2:35 AM,48.2,44.6,87,29.83,9.0,SSE,4.6,-,N/A,,Mostly Cloudy,150,2013-10-10 09:35:00
2:55 AM,48.2,44.6,87,29.84,8.0,Calm,Calm,-,N/A,,Mostly Cloudy,0,2013-10-10 09:55:00
3:15 AM,46.4,44.6,93,29.84,10.0,Calm,Calm,-,N/A,,Mostly Cloudy,0,2013-10-10 10:15:00
3:35 AM,46.4,44.6,93,29.85,10.0,Calm,Calm,-,N/A,,Mostly Cloudy,0,2013-10-10 10:35:00
3:55 AM,46.4,42.8,87,29.85,10.0,North,3.5,-,N/A,,Mostly Cloudy,10,2013-10-10 10:55:00
4:15 AM,44.6,41.0,87,29.85,10.0,Calm,Calm,-,N/A,,Mostly Cloudy,0,2013-10-10 11:15:00
4:35 AM,46.4,41.0,81,29.85,10.0,Calm,Calm,-,N/A,,Mostly Cloudy,0,2013-10-10 11:35:00
4:55 AM,44.6,41.0,87,29.86,10.0,Calm,Calm,-,N/A,,Mostly Cloudy,0,2013-10-10 11:55:00
5:15 AM,44.6,42.8,93,29.87,10.0,SW,3.5,-,N/A,,Mostly Cloudy,230,2013-10-10 12:15:00
5:35 AM,44.6,41.0,87,29.88,10.0,Calm,Calm,-,N/A,,Overcast,0,2013-10-10 12:35:00
5:55 AM,44.6,42.8,93,29.88,10.0,Calm,Calm,-,N/A,,Overcast,0,2013-10-10 12:55:00
6:15 AM,46.4,42.8,87,29.88,10.0,SW,3.5,-,N/A,,Overcast,230,2013-10-10 13:15:00
6:35 AM,46.4,44.6,93,29.89,8.0,Calm,Calm,-,N/A,,Overcast,0,2013-10-10 13:35:00
6:55 AM,46.4,44.6,93,29.90,7.0,SW,3.5,-,N/A,,Overcast,220,2013-10-10 13:55:00
7:15 AM,46.4,44.6,93,29.90,5.0,Calm,Calm,-,N/A,,Overcast,0,2013-10-10 14:15:00
7:35 AM,46.4,44.6,93,29.91,6.0,Calm,Calm,-,N/A,,Overcast,0,2013-10-10 14:35:00
7:55 AM,48.2,44.6,87,29.92,6.0,Calm,Calm,-,N/A,,Overcast,0,2013-10-10 14:55:00
8:15 AM,48.2,44.6,87,29.92,7.0,South,4.6,-,N/A,,Overcast,190,2013-10-10 15:15:00
8:35 AM,48.2,44.6,87,29.93,8.0,SW,4.6,-,N/A,,Mostly Cloudy,220,2013-10-10 15:35:00
8:55 AM,48.2,44.6,87,29.94,8.0,SSE,4.6,-,N/A,,Clear,150,2013-10-10 15:55:00
9:15 AM,51.8,46.4,82,29.94,9.0,SE,6.9,-,N/A,,Clear,140,2013-10-10 16:15:00
9:35 AM,53.6,46.4,77,29.95,8.0,South,9.2,-,N/A,,Clear,170,2013-10-10 16:35:00
9:55 AM,55.4,46.4,72,29.95,9.0,SSE,8.1,-,N/A,,Clear,160,2013-10-10 16:55:00
10:15 AM,57.2,46.4,67,29.96,10.0,SE,9.2,-,N/A,,Clear,140,2013-10-10 17:15:00
10:35 AM,57.2,46.4,67,29.97,10.0,SE,8.1,-,N/A,,Clear,130,2013-10-10 17:35:00
10:55 AM,59.0,46.4,63,29.97,10.0,South,8.1,-,N/A,,Clear,170,2013-10-10 17:55:00
11:15 AM,59.0,46.4,63,29.97,10.0,South,3.5,-,N/A,,Clear,180,2013-10-10 18:15:00
11:35 AM,60.8,46.4,59,29.97,10.0,SE,6.9,-,N/A,,Clear,130,2013-10-10 18:35:00
11:55 AM,62.6,46.4,55,29.97,10.0,SSE,8.1,-,N/A,,Clear,160,2013-10-10 18:55:00
12:15 PM,62.6,46.4,55,29.97,10.0,SSW,8.1,-,N/A,,Clear,200,2013-10-10 19:15:00
12:35 PM,64.4,46.4,52,29.96,10.0,SSW,10.4,-,N/A,,Clear,200,2013-10-10 19:35:00
12:55 PM,64.4,44.6,49,29.96,10.0,SSW,10.4,-,N/A,,Clear,210,2013-10-10 19:55:00
1:15 PM,64.4,44.6,49,29.95,10.0,SSW,13.8,-,N/A,,Clear,210,2013-10-10 20:15:00
1:35 PM,66.2,44.6,46,29.95,10.0,SW,11.5,-,N/A,,Clear,220,2013-10-10 20:35:00
1:55 PM,64.4,46.4,52,29.94,10.0,SW,13.8,-,N/A,,Clear,220,2013-10-10 20:55:00
2:15 PM,64.4,46.4,52,29.94,10.0,SSW,13.8,18.4,N/A,,Clear,210,2013-10-10 21:15:00
2:35 PM,64.4,46.4,52,29.94,10.0,South,10.4,-,N/A,,Clear,190,2013-10-10 21:35:00
2:55 PM,64.4,46.4,52,29.95,10.0,South,12.7,17.3,N/A,,Clear,190,2013-10-10 21:55:00
3:15 PM,64.4,46.4,52,29.95,10.0,South,15.0,-,N/A,,Clear,180,2013-10-10 22:15:00
3:35 PM,64.4,46.4,52,29.96,10.0,South,11.5,-,N/A,,Clear,190,2013-10-10 22:35:00
3:55 PM,64.4,44.6,49,29.95,10.0,South,15.0,-,N/A,,Clear,190,2013-10-10 22:55:00
4:15 PM,64.4,44.6,49,29.96,10.0,SW,13.8,18.4,N/A,,Clear,220,2013-10-10 23:15:00
4:35 PM,64.4,46.4,52,29.95,10.0,SSW,12.7,20.7,N/A,,Clear,200,2013-10-10 23:35:00
4:55 PM,62.6,46.4,55,29.95,10.0,SSW,10.4,18.4,N/A,,Clear,200,2013-10-10 23:55:00
5:15 PM,62.6,46.4,55,29.95,10.0,SSW,9.2,-,N/A,,Clear,200,2013-10-11 00:15:00
5:35 PM,62.6,46.4,55,29.95,10.0,SSE,10.4,16.1,N/A,,Clear,150,2013-10-11 00:35:00
5:55 PM,62.6,46.4,55,29.96,10.0,SSE,12.7,-,N/A,,Clear,160,2013-10-11 00:55:00
6:15 PM,60.8,46.4,59,29.96,10.0,SSE,12.7,-,N/A,,Clear,150,2013-10-11 01:15:00
6:35 PM,59.0,46.4,63,29.97,10.0,SE,13.8,-,N/A,,Clear,140,2013-10-11 01:35:00
6:55 PM,57.2,46.4,67,29.98,10.0,SSE,10.4,-,N/A,,Partly Cloudy,150,2013-10-11 01:55:00
7:15 PM,57.2,48.2,72,29.98,10.0,SSE,10.4,-,N/A,,Scattered Clouds,150,2013-10-11 02:15:00
7:35 PM,55.4,48.2,77,29.99,10.0,SSE,8.1,-,N/A,,Scattered Clouds,160,2013-10-11 02:35:00
7:55 PM,55.4,48.2,77,29.99,10.0,South,8.1,-,N/A,,Mostly Cloudy,170,2013-10-11 02:55:00
8:15 PM,53.6,48.2,82,30.00,10.0,SE,11.5,-,N/A,,Overcast,140,2013-10-11 03:15:00
8:35 PM,53.6,48.2,82,30.01,10.0,SE,9.2,-,N/A,,Overcast,140,2013-10-11 03:35:00
8:55 PM,53.6,48.2,82,30.02,10.0,SSE,6.9,-,N/A,,Mostly Cloudy,150,2013-10-11 03:55:00
9:15 PM,53.6,48.2,82,30.02,10.0,SSE,8.1,-,N/A,,Mostly Cloudy,150,2013-10-11 04:15:00
9:35 PM,53.6,48.2,82,30.03,10.0,SSE,6.9,-,N/A,,Mostly Cloudy,150,2013-10-11 04:35:00
9:55 PM,51.8,48.2,88,30.04,10.0,SE,9.2,-,N/A,,Mostly Cloudy,140,2013-10-11 04:55:00
10:15 PM,51.8,48.2,88,30.04,10.0,SE,9.2,-,N/A,,Overcast,140,2013-10-11 05:15:00
10:35 PM,51.8,48.2,88,30.04,10.0,SE,10.4,-,N/A,,Overcast,130,2013-10-11 05:35:00
10:55 PM,51.8,48.2,88,30.04,10.0,SE,8.1,-,N/A,,Overcast,140,2013-10-11 05:55:00
11:15 PM,50.0,48.2,94,30.05,10.0,SSE,5.8,-,N/A,,Overcast,150,2013-10-11 06:15:00
11:35 PM,50.0,46.4,87,30.05,10.0,SSE,5.8,-,N/A,,Overcast,150,2013-10-11 06:35:00
11:55 PM,50.0,46.4,87,30.05,10.0,SSE,4.6,-,N/A,,Overcast,150,2013-10-11 06:55:00